When you browse on this site, cookies collect data to enhance your experience and personalize the content and advertising you see.
Visit our Privacy Policy to learn more. By continuing to use the site, you agree to this use of cookies and data.

Hourly Weather Turpan

Today, 11 July, Saturday

Time Temperature Precipitation Wind Pressure Humidity
00:00 +38°C° 0 mm 3 mps 750 mmHg 18%
01:00 +38°C° 0 mm 3 mps 750 mmHg 20%
02:00 +37°C° 0 mm 3 mps 749 mmHg 21%
03:00 +37°C° 0 mm 3 mps 749 mmHg 22%
04:00 +37°C° 0 mm 3 mps 750 mmHg 21%
05:00 +37°C° 0 mm 2 mps 750 mmHg 21%
06:00 +36°C° 0 mm 1 mps 751 mmHg 19%
07:00 +38°C° 0 mm 2 mps 751 mmHg 18%
08:00 +39°C° 0 mm 2 mps 751 mmHg 18%
09:00 +39°C° 0 mm 2 mps 751 mmHg 17%
10:00 +40°C° 0 mm 2 mps 750 mmHg 16%
11:00 +41°C° 0 mm 2 mps 750 mmHg 15%
12:00 +41°C° 0 mm 2 mps 750 mmHg 15%
13:00 +42°C° 0 mm 2 mps 749 mmHg 15%
14:00 +42°C° 0 mm 2 mps 749 mmHg 14%
15:00 +43°C° 0 mm 2 mps 749 mmHg 14%
16:00 +42°C° 0 mm 2 mps 749 mmHg 14%
17:00 +43°C° 0 mm 3 mps 749 mmHg 15%
18:00 +42°C° 0 mm 4 mps 749 mmHg 16%
19:00 +41°C° 0.2 mm 5 mps 750 mmHg 19%
20:00 +39°C° 0.2 mm 6 mps 750 mmHg 23%
21:00 +36°C° 0.2 mm 7 mps 751 mmHg 26%
22:00 +36°C° 0.3 mm 6 mps 751 mmHg 27%
23:00 +35°C° 0.3 mm 6 mps 751 mmHg 28%

Tomorrow, 12 July, Sunday

Time Temperature Precipitation Wind Pressure Humidity
00:00 +35°C° 0.3 mm 5 mps 751 mmHg 29%
01:00 +34°C° 0.3 mm 4 mps 751 mmHg 31%
02:00 +34°C° 0.3 mm 3 mps 751 mmHg 32%
03:00 +33°C° 0.3 mm 3 mps 751 mmHg 33%
04:00 +34°C° 0 mm 2 mps 751 mmHg 32%
05:00 +34°C° 0 mm 2 mps 751 mmHg 31%
06:00 +34°C° 0 mm 2 mps 751 mmHg 30%
07:00 +35°C° 0 mm 2 mps 751 mmHg 28%
08:00 +36°C° 0 mm 3 mps 751 mmHg 26%
09:00 +37°C° 0 mm 3 mps 751 mmHg 23%
10:00 +38°C° 0 mm 3 mps 751 mmHg 22%
11:00 +39°C° 0 mm 2 mps 750 mmHg 20%
12:00 +40°C° 0 mm 2 mps 750 mmHg 19%
13:00 +41°C° 0 mm 2 mps 750 mmHg 17%
14:00 +42°C° 0 mm 3 mps 749 mmHg 16%
15:00 +43°C° 0 mm 3 mps 749 mmHg 15%
16:00 +43°C° 0 mm 3 mps 749 mmHg 15%
17:00 +43°C° 0 mm 4 mps 749 mmHg 15%
18:00 +43°C° 0 mm 4 mps 749 mmHg 15%
19:00 +42°C° 0 mm 5 mps 750 mmHg 18%
20:00 +40°C° 0 mm 6 mps 751 mmHg 20%
21:00 +39°C° 0 mm 7 mps 751 mmHg 23%
22:00 +38°C° 0 mm 7 mps 752 mmHg 25%
23:00 +36°C° 0 mm 6 mps 752 mmHg 27%

Day after tomorrow, 13 July, Monday

Time Temperature Precipitation Wind Pressure Humidity
00:00 +35°C° 0 mm 6 mps 752 mmHg 28%
01:00 +35°C° 0 mm 6 mps 752 mmHg 29%
02:00 +34°C° 0 mm 6 mps 753 mmHg 30%
03:00 +34°C° 0 mm 7 mps 753 mmHg 31%
04:00 +33°C° 0.3 mm 6 mps 753 mmHg 32%
05:00 +33°C° 0.3 mm 5 mps 753 mmHg 33%
06:00 +33°C° 0.3 mm 4 mps 753 mmHg 34%
07:00 +34°C° 0.1 mm 4 mps 753 mmHg 31%
08:00 +35°C° 0.1 mm 4 mps 753 mmHg 28%
09:00 +37°C° 0.1 mm 4 mps 753 mmHg 25%
10:00 +38°C° 0.1 mm 3 mps 753 mmHg 23%
11:00 +39°C° 0.1 mm 3 mps 753 mmHg 22%
12:00 +40°C° 0.1 mm 2 mps 752 mmHg 20%
13:00 +40°C° 0 mm 3 mps 752 mmHg 18%
14:00 +42°C° 0 mm 3 mps 751 mmHg 15%
15:00 +43°C° 0 mm 4 mps 751 mmHg 13%
16:00 +43°C° 0 mm 5 mps 751 mmHg 12%
17:00 +44°C° 0 mm 6 mps 751 mmHg 11%
18:00 +44°C° 0 mm 6 mps 751 mmHg 10%
19:00 +42°C° 0 mm 6 mps 751 mmHg 12%
20:00 +41°C° 0 mm 6 mps 752 mmHg 13%
21:00 +40°C° 0 mm 6 mps 752 mmHg 15%
22:00 +39°C° 0 mm 6 mps 752 mmHg 16%
23:00 +38°C° 0 mm 6 mps 752 mmHg 17%

14 July, Tuesday

Time Temperature Precipitation Wind Pressure Humidity
00:00 +38°C° 0 mm 6 mps 752 mmHg 19%
01:00 +36°C° 0 mm 5 mps 752 mmHg 19%
02:00 +36°C° 0 mm 5 mps 752 mmHg 19%
03:00 +35°C° 0 mm 4 mps 752 mmHg 20%
04:00 +35°C° 0 mm 4 mps 753 mmHg 19%
05:00 +35°C° 0 mm 3 mps 753 mmHg 19%
06:00 +35°C° 0 mm 2 mps 753 mmHg 19%
07:00 +36°C° 0 mm 2 mps 753 mmHg 18%
08:00 +37°C° 0 mm 2 mps 753 mmHg 16%
09:00 +38°C° 0 mm 3 mps 753 mmHg 15%
10:00 +39°C° 0 mm 2 mps 752 mmHg 14%
11:00 +40°C° 0 mm 2 mps 752 mmHg 14%
12:00 +40°C° 0 mm 1 mps 752 mmHg 13%
13:00 +41°C° 0 mm 1 mps 751 mmHg 12%
14:00 +42°C° 0 mm 1 mps 751 mmHg 11%
15:00 +43°C° 0 mm 1 mps 750 mmHg 10%
16:00 +43°C° 0 mm 2 mps 750 mmHg 10%
17:00 +43°C° 0 mm 2 mps 750 mmHg 9%
18:00 +44°C° 0 mm 3 mps 750 mmHg 9%
19:00 +43°C° 0 mm 3 mps 751 mmHg 10%
20:00 +42°C° 0 mm 3 mps 751 mmHg 11%
21:00 +40°C° 0 mm 3 mps 751 mmHg 12%
22:00 +40°C° 0 mm 3 mps 751 mmHg 12%
23:00 +40°C° 0 mm 4 mps 751 mmHg 13%

15 July, Wednesday

Time Temperature Precipitation Wind Pressure Humidity
00:00 +38°C° 0 mm 4 mps 751 mmHg 14%
01:00 +38°C° 0 mm 3 mps 751 mmHg 15%
02:00 +37°C° 0 mm 3 mps 751 mmHg 15%
03:00 +36°C° 0 mm 3 mps 751 mmHg 16%
04:00 +36°C° 0 mm 3 mps 751 mmHg 15%
05:00 +36°C° 0 mm 2 mps 751 mmHg 15%
06:00 +37°C° 0 mm 2 mps 751 mmHg 15%
07:00 +38°C° 0 mm 3 mps 751 mmHg 13%
08:00 +39°C° 0 mm 3 mps 751 mmHg 12%
09:00 +40°C° 0 mm 3 mps 751 mmHg 11%
10:00 +42°C° 0 mm 3 mps 750 mmHg 10%
11:00 +42°C° 0 mm 2 mps 750 mmHg 10%
12:00 +43°C° 0 mm 2 mps 750 mmHg 9%
13:00 +45°C° 0 mm 2 mps 749 mmHg 9%
14:00 +44°C° 0 mm 1 mps 749 mmHg 9%
15:00 +45°C° 0 mm 1 mps 748 mmHg 9%
16:00 +46°C° 0 mm 3 mps 748 mmHg 9%
17:00 +45°C° 0 mm 4 mps 749 mmHg 9%
18:00 +46°C° 0 mm 6 mps 749 mmHg 10%
19:00 +45°C° 0 mm 6 mps 749 mmHg 11%
20:00 +45°C° 0 mm 6 mps 750 mmHg 13%
21:00 +44°C° 0 mm 7 mps 750 mmHg 14%
22:00 +43°C° 0 mm 7 mps 750 mmHg 15%
23:00 +42°C° 0 mm 6 mps 750 mmHg 16%

16 July, Thursday

Time Temperature Precipitation Wind Pressure Humidity
00:00 +41°C° 0 mm 6 mps 750 mmHg 17%
01:00 +40°C° 0 mm 5 mps 750 mmHg 18%
02:00 +40°C° 0 mm 5 mps 750 mmHg 20%
03:00 +38°C° 0 mm 4 mps 749 mmHg 21%
04:00 +38°C° 0 mm 4 mps 750 mmHg 21%
05:00 +38°C° 0 mm 4 mps 750 mmHg 21%
06:00 +38°C° 0 mm 4 mps 750 mmHg 21%
07:00 +40°C° 0 mm 4 mps 750 mmHg 20%
08:00 +40°C° 0 mm 4 mps 750 mmHg 18%
09:00 +40°C° 0 mm 3 mps 750 mmHg 17%
10:00 +42°C° 0 mm 3 mps 750 mmHg 16%
11:00 +43°C° 0 mm 3 mps 749 mmHg 15%
12:00 +43°C° 0 mm 2 mps 749 mmHg 14%
13:00 +45°C° 0 mm 2 mps 748 mmHg 13%
14:00 +46°C° 0 mm 2 mps 748 mmHg 13%
15:00 +46°C° 0 mm 2 mps 748 mmHg 12%
16:00 +46°C° 0 mm 2 mps 747 mmHg 12%
17:00 +46°C° 0 mm 2 mps 747 mmHg 12%
18:00 +46°C° 0 mm 2 mps 747 mmHg 11%
19:00 +45°C° 0 mm 3 mps 748 mmHg 12%
20:00 +45°C° 0 mm 3 mps 748 mmHg 13%
21:00 +44°C° 0 mm 4 mps 749 mmHg 14%
22:00 +43°C° 0 mm 4 mps 749 mmHg 15%
23:00 +42°C° 0 mm 5 mps 749 mmHg 16%
Show more